GW6451 Weather Reports


time (UTC)temp
F
wind
direction
speed
knots
gust
knots
rain 1hr
in
rain 24hr
in
rain mn
in
humidity
%
barometer
mb
20260504011517 64 291 1.7 3.5 0.00 0.01 0.01 37 1004.9
20260504010600 65 289 1.7 2.6 0.00 0.01 0.01 36 1004.9
20260504005520 66 300 2.6 4.3 0.00 0.01 0.01 35 1004.8
20260504004520 67 296 3.5 7.8 0.00 0.01 0.01 34 1004.8
20260504003533 67 293 3.5 7.0 0.00 0.01 0.01 33 1004.8
20260504002541 68 283 5.2 8.7 0.00 0.01 0.01 32 1004.9
20260504001518 68 298 5.2 8.7 0.00 0.01 0.01 31 1004.9
20260504000521 68 317 5.2 10.4 0.00 0.01 0.01 30 1004.9
20260503235519 69 313 5.2 7.8 0.00 0.01 0.01 33 1004.8
20260503234519 69 280 4.3 7.8 0.00 0.01 0.01 33 1004.7
20260503233549 69 301 5.2 8.7 0.00 0.01 0.01 35 1004.6
20260503232519 69 281 5.2 9.6 0.00 0.01 0.01 36 1004.7
20260503231519 70 292 6.1 10.4 0.00 0.01 0.01 34 1004.6
20260503230519 70 290 5.2 7.8 0.00 0.01 0.01 34 1004.6
20260503225519 70 304 5.2 9.6 0.00 0.01 0.01 33 1004.4
20260503224532 70 323 4.3 8.7 0.00 0.01 0.01 32 1004.5
20260503223520 70 304 5.2 10.4 0.00 0.01 0.01 33 1004.5
20260503222532 70 280 5.2 7.8 0.00 0.01 0.01 34 1004.4
20260503221520 0 294 4.3 7.0 0.00 0.01 0.01
20260503220521 69 318 6.1 11.3 0.00 0.01 0.01 33 1004.5
20260503215541 70 319 6.1 9.6 0.00 0.01 0.01 32 1004.5
20260503214543 0 297 6.1 10.4 0.00 0.01 0.01
20260503213533 70 282 7.0 13.9 0.00 0.01 0.01 33 1004.7
20260503212541 70 330 5.2 8.7 0.00 0.01 0.01 35 1004.6
20260503211519 70 315 4.3 7.8 0.00 0.01 0.01 36 1004.5
20260503210519 70 321 6.1 10.4 0.00 0.01 0.01 35 1004.6
20260503205518 70 280 5.2 11.3 0.00 0.01 0.01 36 1004.6
20260503204518 70 303 7.0 10.4 0.00 0.01 0.01 36 1004.7
20260503203542 69 282 7.0 11.3 0.00 0.01 0.01 35 1004.7
20260503202519 70 322 5.2 9.6 0.00 0.01 0.01 38 1004.8
20260503201525 70 303 6.1 9.6 0.00 0.01 0.01 38 1005.0
20260503200523 69 280 6.1 10.4 0.00 0.01 0.01 41 1004.9
20260503195558 69 296 7.0 10.4 0.00 0.01 0.01 40 1004.9
20260503194520 69 303 5.2 8.7 0.00 0.01 0.01 41 1005.0
20260503193518 68 314 5.2 12.2 0.00 0.01 0.01 43 1005.0
20260503192520 68 310 6.1 10.4 0.00 0.01 0.01 43 1005.0
20260503191540 68 289 6.1 10.4 0.00 0.01 0.01 42 1005.1
20260503190520 68 333 5.2 9.6 0.00 0.01 0.01 42 1005.1
20260503185537 68 325 3.5 7.8 0.00 0.01 0.01 44 1005.2
20260503184538 67 304 6.1 9.6 0.00 0.01 0.01 44 1005.3
20260503183521 67 283 5.2 11.3 0.00 0.01 0.01 45 1005.3
20260503182522 66 285 5.2 10.4 0.00 0.01 0.01 46 1005.5
20260503181525 66 283 5.2 9.6 0.00 0.01 0.01 47 1005.6
20260503180533 66 252 5.2 7.8 0.00 0.01 0.01 47 1005.7
20260503175539 65 229 4.3 9.6 0.00 0.01 0.01 47 1005.7
20260503174522 65 244 5.2 11.3 0.00 0.01 0.01 48 1005.7
20260503173519 64 239 2.6 6.1 0.00 0.01 0.01 49 1005.7
20260503172519 63 216 4.3 9.6 0.00 0.01 0.01 49 1005.7
20260503171520 63 212 6.1 8.7 0.00 0.01 0.01 49 1005.9
20260503170540 62 248 4.3 8.7 0.00 0.01 0.01 50 1006.1
20260503150519 56 231 7.8 12.2 0.00 0.01 0.01 54 1006.6
20260503130541 54 199 7.8 13.0 0.00 0.01 0.01 56 1007.4
20260503110522 52 191 5.2 8.7 0.01 0.01 0.01 67 1008.1
20260503081557 0 198 4.3 6.1 0.00 0.00 0.00
20260503080519 51 216 5.2 7.8 0.00 0.00 0.00 56 1010.2
20260503072524 51 208 7.0 9.6 0.00 0.00 0.00 52 1010.4
20260503071519 51 212 7.0 10.4 0.00 0.00 0.00 53 1010.6
20260503070541 51 211 5.2 10.4 0.00 0.00 0.00 53 1010.7
20260503054520 50 207 4.3 7.8 0.00 0.00 0.00 56 1011.2
20260503053520 49 211 3.5 7.8 0.00 0.00 0.00 56 1011.4
20260503052520 49 204 3.5 7.0 0.00 0.00 0.00 56 1011.6
20260503051520 48 212 2.6 5.2 0.00 0.00 0.00 58 1011.7
20260503050540 48 210 2.6 5.2 0.00 0.00 0.00 59 1011.7
20260503045518 49 201 2.6 4.3 0.00 0.00 0.00 57 1011.7
20260503044520 49 201 2.6 5.2 0.00 0.00 0.00 58 1011.8
20260503043527 49 199 2.6 5.2 0.00 0.00 0.00 57 1011.8
20260503042522 50 195 2.6 4.3 0.00 0.00 0.00 56 1011.9
20260503041538 50 199 2.6 6.1 0.00 0.00 0.00 56 1012.0
20260503040519 50 201 2.6 4.3 0.00 0.00 0.00 56 1012.1
20260503035524 50 199 2.6 7.0 0.00 0.00 0.00 56 1012.2
20260503034539 51 208 2.6 5.2 0.00 0.00 0.00 55 1012.4
20260503033519 51 194 2.6 4.3 0.00 0.00 0.00 53 1012.6
20260503032539 51 199 2.6 4.3 0.00 0.00 0.00 53 1012.6
20260503031525 52 209 2.6 4.3 0.00 0.00 0.00 53 1012.7
20260503030541 52 200 1.7 3.5 0.00 0.00 0.00 52 1012.9
20260503025522 52 204 1.7 3.5 0.00 0.00 0.00 50 1012.9
20260503024603 53 209 1.7 3.5 0.00 0.00 0.00 50 1013.0
20260503023538 53 213 1.7 2.6 0.00 0.00 0.00 50 1013.0
20260503022527 0 212 2.6 4.3 0.00 0.00 0.00
20260503021529 54 207 2.6 4.3 0.00 0.00 0.00 49 1013.0
20260503020520 54 214 2.6 3.5 0.00 0.00 0.00 47 1013.0
20260503015520 54 222 1.7 2.6 0.00 0.00 0.00 47 1013.0
20260503014521 55 226 2.6 3.5 0.00 0.00 0.00 47 1013.0
20260503013527 55 233 2.6 4.3 0.00 0.00 0.00 45 1012.9
20260503012518 56 224 2.6 4.3 0.00 0.00 0.00 45 1012.9